TimeEDT,TemperatureF,Dew PointF,Humidity,Sea Level PressureIn,VisibilityMPH,Wind Direction,Wind SpeedMPH,Gust SpeedMPH,PrecipitationIn,Events,Conditions,WindDirDegrees,DateUTC
12:53 AM,73.0,69.1,87,30.04,10.0,South,5.8,-,N/A,,Clear,170,2013-05-11 04:53:00
1:53 AM,73.0,69.1,87,30.02,10.0,South,6.9,17.3,N/A,,Clear,180,2013-05-11 05:53:00
2:53 AM,72.0,68.0,87,30.01,10.0,SSW,5.8,-,N/A,,Clear,210,2013-05-11 06:53:00
3:53 AM,69.1,64.9,87,30.01,10.0,WSW,5.8,-,N/A,,Clear,250,2013-05-11 07:53:00
4:53 AM,68.0,63.0,84,30.00,10.0,WSW,4.6,-,N/A,,Clear,240,2013-05-11 08:53:00
5:53 AM,68.0,63.0,84,30.01,10.0,WSW,3.5,-,N/A,,Scattered Clouds,240,2013-05-11 09:53:00
6:53 AM,68.0,62.1,81,30.02,10.0,WSW,5.8,-,N/A,,Scattered Clouds,240,2013-05-11 10:53:00
7:53 AM,69.1,63.0,81,30.02,10.0,Calm,Calm,-,N/A,,Partly Cloudy,0,2013-05-11 11:53:00
8:53 AM,70.0,64.0,81,30.02,10.0,SW,5.8,-,N/A,,Partly Cloudy,230,2013-05-11 12:53:00
9:53 AM,73.9,64.0,71,30.02,10.0,SW,6.9,-,N/A,,Scattered Clouds,220,2013-05-11 13:53:00
10:53 AM,77.0,64.0,64,30.01,10.0,SW,8.1,-,N/A,,Clear,230,2013-05-11 14:53:00
11:53 AM,81.0,64.9,58,30.00,10.0,SW,10.4,-,N/A,,Clear,220,2013-05-11 15:53:00
12:53 PM,84.0,64.0,51,29.99,10.0,WSW,9.2,19.6,N/A,,Clear,250,2013-05-11 16:53:00
1:53 PM,84.9,64.0,49,29.96,10.0,SSW,8.1,-,N/A,,Partly Cloudy,210,2013-05-11 17:53:00
2:53 PM,80.1,68.0,67,29.96,10.0,SSE,6.9,-,N/A,,Scattered Clouds,160,2013-05-11 18:53:00
3:53 PM,81.0,69.1,67,29.95,10.0,SE,9.2,-,N/A,,Scattered Clouds,140,2013-05-11 19:53:00
4:53 PM,80.6,69.8,70,29.93,10.0,SSE,3.5,-,N/A,,Scattered Clouds,150,2013-05-11 20:53:00
5:53 PM,82.9,64.0,53,29.93,10.0,WSW,9.2,-,N/A,,Clear,250,2013-05-11 21:53:00
6:53 PM,78.1,66.9,68,29.95,10.0,SW,10.4,-,N/A,,Mostly Cloudy,230,2013-05-11 22:53:00
7:53 PM,75.9,64.9,69,29.98,10.0,WSW,16.1,24.2,N/A,,Mostly Cloudy,250,2013-05-11 23:53:00
8:53 PM,71.1,68.0,90,29.97,10.0,West,6.9,-,0.02,,Scattered Clouds,260,2013-05-12 00:53:00
9:53 PM,72.0,66.9,84,29.96,10.0,SW,5.8,-,N/A,,Clear,230,2013-05-12 01:53:00
10:53 PM,71.1,68.0,90,29.96,10.0,SSW,8.1,-,N/A,,Clear,210,2013-05-12 02:53:00
11:53 PM,71.1,66.9,87,29.98,10.0,SW,10.4,-,N/A,,Clear,230,2013-05-12 03:53:00